Regional Weather Roundup
Issued by NWS

Home | Current Version | Previous Version | Graphics & Text | Print | Product List | Glossary On
Versions: 1 2 3 4 5 6 7 8 9 10 11 12 13 14 15 16 17 18 19 20 21 22 23 24 25 26 27 28 29 30 31 32 33 34 35 36 37 38 39 40 41 42 43 44 45 46 47 48 49 50
000
ASUS43 KOAX 231610
RWRNE

WEATHER ROUNDUP FOR NEBRASKA
NATIONAL WEATHER SERVICE OMAHA NE
1100 AM CDT WED JUL 23 2014

NOTES: SATELLITE DATA IS BEING USED TO AUGMENT CLOUD COVER ABOVE
       12000 FEET.
       "FAIR" INDICATES FEW OR NO CLOUDS BELOW 12,000 FEET WITH NO
       SIGNIFICANT WEATHER AND/OR OBSTRUCTIONS TO VISIBILITY.

  * THESE STATIONS DO NOT REPORT WEATHER SUCH AS RAIN...SNOW OR FOG.

NEZ001>004-019>022-054>056-231700-
NEBRASKA PANHANDLE

CITY           SKY/WX    TMP DP  RH WIND       PRES   REMARKS
SCOTTSBLUFF    MOSUNNY   79  62  56 S15       30.32F
ALLIANCE       SUNNY     79  56  45 S15       30.31F
CHADRON        SUNNY     83  58  42 S16       30.24F
KIMBALL        PTSUNNY   72  64  76 SE21G26   30.34F
SIDNEY         SUNNY     78  62  57 SE20      30.35S
$$

NEZ057>060-069>072-079>082-231700-
SOUTHWEST NEBRASKA

CITY           SKY/WX    TMP DP  RH WIND       PRES   REMARKS
NORTH PLATTE   CLOUDY    68  62  81 W6        30.28R
IMPERIAL       CLOUDY    68  58  70 VRB6      30.27R
LEXINGTON      LGT RAIN  66  64  93 SW13G21   30.28F
MCCOOK         TSTM      66  63  90 E5        30.33F
OGALLALA       MOSUNNY   74  59  58 SE10G18   30.30R
$$

NEZ005>010-023>029-035>040-094-231700-
NORTH CENTRAL NEBRASKA

CITY           SKY/WX    TMP DP  RH WIND       PRES   REMARKS
VALENTINE      MOSUNNY   79  61  53 SE18      30.27F
AINSWORTH      MOSUNNY   74  60  61 SE15      30.28R
BROKEN BOW     CLOUDY    68  60  75 E12       30.29F
O`NEILL        MOSUNNY   75  53  45 SE9       30.30F
ORD            CLOUDY    72  58  61 E7        30.28F
THEDFORD       PTSUNNY   71  61  70 SE10      30.28F
$$

NEZ041-046>049-061>064-073>077-083>087-231700-
SOUTH CENTRAL NEBRASKA

CITY           SKY/WX    TMP DP  RH WIND       PRES   REMARKS
GRAND ISLAND   CLOUDY    74  59  59 E8        30.29S
AURORA         PTSUNNY   74  61  61 E8        30.27F
HASTINGS       CLOUDY    73  58  59 E6        30.28S
HEBRON         MOSUNNY   77  60  56 NE9       30.24S
HOLDREGE       CLOUDY    68  61  79 W8        30.34R
KEARNEY *      CLOUDY    68  59  73 SE6       30.30F
YORK           MOSUNNY   75  63  64 NE6       30.27F
$$

NEZ011>018-030>034-042>045-231700-
NORTHEAST NEBRASKA

CITY           SKY/WX    TMP DP  RH WIND       PRES   REMARKS
NORFOLK        SUNNY     76  56  49 E7        30.27F
ALBION         MOSUNNY   73  57  56 E7        30.29S
BLAIR          SUNNY     75  58  55 NE6       30.27R
COLUMBUS *     SUNNY     77  57  50 E8        30.27S
FREMONT        SUNNY     77  60  56 CALM      30.26F
TEKAMAH        SUNNY     78  61  55 VRB5      30.26R
WAYNE          MOSUNNY   76  60  57 NE6       30.28F
$$

NEZ050>053-065>068-078-088>093-231700-
SOUTHEAST NEBRASKA

CITY           SKY/WX    TMP DP  RH WIND       PRES   REMARKS
LINCOLN        SUNNY     80  59  48 NE13      30.25F
OMAHA EPPLEY   MOSUNNY   78  59  51 N7        30.25R
BEATRICE       SUNNY     76  62  61 NE12      30.22F
FALLS CITY     MOSUNNY   79  67  66 VRB7      30.22R
NEBRASKA CITY  SUNNY     76  62  61 NE6       30.24S
PLATTSMOUTH    SUNNY     77  58  52 N6        30.25S
$$

NEZ044-045-051>053-067-231700-
OMAHA AREA

CITY           SKY/WX    TMP DP  RH WIND       PRES   REMARKS
OMAHA EPPLEY   MOSUNNY   78  59  51 N7        30.25R
BLAIR          SUNNY     75  58  55 NE6       30.27R
FREMONT        SUNNY     77  60  56 CALM      30.26F
MILLARD        SUNNY     77  60  54 CALM      30.26R
OFFUTT AFB     SUNNY     78  60  54 VRB2      30.25R
PLATTSMOUTH    SUNNY     77  58  52 N6        30.25S
WAHOO          FAIR      77  60  54 NE6       30.25F
$$


USA.gov is the U.S. government's official web portal to all federal, state and local government web resources and services.